Location: Bannatyne
(13.0833°N, 59.5333°W)
Time: 03:31:39
(UTC+00:00)

deb Explorer IX - Pass Details

Date: 31 January 2020
Orbit: 549 x 1099 km, 38.8° (Epoch: 18 February)

Event Time Altitude Azimuth Distance (km) Brightness Sun altitude
Rises 04:01:01 0° 327° (NNW) 3,871 - -84.9°
Reaches altitude 10° 04:04:57 10° 346° (NNW) 2,940 - -85.3°
Maximum altitude 04:09:24 17° 24° (NNE) 2,457 - -85.5°
Drops below altitude 10° 04:13:46 10° 62° (ENE) 2,897 - -85.5°
Sets 04:17:34 0° 82° (E) 3,789 - -85.3°
